Regional Weather Roundup
Issued by NWS Little Rock, AR

Home | Current Version | Previous Version | Graphics & Text | Print | Product List | Glossary On
Versions: 1 2 3 4 5 6 7 8 9 10 11 12 13 14 15 16 17 18 19 20 21 22 23 24 25 26 27 28 29 30 31 32 33 34 35 36 37 38 39 40 41 42 43 44 45 46 47 48 49 50
000
ASUS44 KLZK 222205
RWRLZK

WEATHER ROUNDUP FOR ARKANSAS
NATIONAL WEATHER SERVICE LITTLE ROCK AR
500 PM CDT TUE MAY 22 2018

NOTE: "FAIR" INDICATES FEW OR NO CLOUDS BELOW 12,000 FEET WITH NO
SIGNIFICANT WEATHER AND/OR OBSTRUCTIONS TO VISIBILITY.

ARZ001-003-010-029-222300-
NORTHWEST ARKANSAS

CITY           SKY/WX    TMP DP  RH WIND       PRES   REMARKS
FAYETTEVILLE   PTSUNNY   79  68  69 S17       30.00R
FORT SMITH     CLOUDY    79  68  69 CALM      29.97S
HARRISON       CLOUDY    78  68  71 SE12      30.03R
BENTONVILLE    SUNNY     87  63  44 VRB3      30.01F HX  88
ROGERS         MOSUNNY   84  67  56 NE8       30.01S HX  86
SILOAM SPGS    SUNNY     85  63  47 SE3       30.00S HX  86
HIGHFILL       MOSUNNY   89  61  38 CALM      30.00S HX  89
SPRINGDALE     MOSUNNY   84  66  54 NE5       30.01S HX  86
$$

ARZ004-005-016-222300-
NORTH CENTRAL ARKANSAS

CITY           SKY/WX    TMP DP  RH WIND       PRES   REMARKS
BATESVILLE     MOSUNNY   86  69  56 E8        29.99S HX  90
FLIPPIN        CLOUDY    74  68  81 S6        30.00F
MTN HOME       CLOUDY    77  69  76 SW5       29.99F
$$

ARZ040-041-222300-
WEST CENTRAL ARKANSAS

CITY           SKY/WX    TMP DP  RH WIND       PRES   REMARKS
MENA           CLOUDY    77  75  94 CALM      30.01
MOUNT IDA      CLOUDY    77  71  82 CALM      29.97F
$$

ARZ009-017-025-026-028-222300-
NORTHEAST ARKANSAS

CITY           SKY/WX    TMP DP  RH WIND       PRES   REMARKS
CORNING        FAIR      90  70  51 CALM      29.97F HX  95
JONESBORO      LGT RAIN  79  76  90 NW3       29.98F
NEWPORT        FAIR      86  69  56 VRB3      29.98S HX  90
WALNUT RIDGE     N/A     85  69  58 VRB5      29.98F HX  89
BLYTHEVILLE    PTSUNNY   86  68  54 CALM      29.98S HX  89
$$

ARZ022-023-033-042-044-222300-
CENTRAL ARKANSAS

CITY           SKY/WX    TMP DP  RH WIND       PRES   REMARKS
LITTLE ROCK    PTSUNNY   77  71  82 CALM      29.97F
N LITTLE ROCK    N/A     76  70  82 CALM      29.94S
JACKSONVILLE   PTSUNNY   80  70  72 CALM      29.97S
CONWAY         MOCLDY    81  73  78 E10       29.96S HX  85
SEARCY         FAIR      85  72  65 S8        29.98S HX  91
HOT SPRINGS    CLOUDY    85  68  56 W6        29.97S HX  88
RUSSELLVILLE   PTSUNNY   81  69  67 SW3       29.97S
CLINTON        RAIN      70  66  88 E8G15     30.02R
$$

ARZ036-222300-
EAST ARKANSAS

CITY           SKY/WX    TMP DP  RH WIND       PRES   REMARKS
WEST MEMPHIS   FAIR      87  71  58 E8        29.96S HX  93
$$

ARZ050-053-066-070-073-222300-
SOUTHWEST ARKANSAS

CITY           SKY/WX    TMP DP  RH WIND       PRES   REMARKS
ARKADELPHIA    FAIR      79  71  76 N5        29.97F
CAMDEN         FAIR      90  66  45 CALM      29.94S HX  92
TEXARKANA      MOSUNNY   87  69  54 CALM      29.95F HX  91
EL DORADO      FAIR      80  71  74 E10       29.97S
DE QUEEN       CLOUDY    77  70  79 E10       29.96S
$$

ARZ056-057-069-222300-
SOUTHEAST ARKANSAS

CITY           SKY/WX    TMP DP  RH WIND       PRES   REMARKS
PINE BLUFF     FAIR      87  68  52 SE6       29.96F HX  90
STUTTGART      FAIR      85  69  58 CALM      29.97S HX  89
MONTICELLO     FAIR      79  71  76 SE3       29.96F

$$





USA.gov is the U.S. government's official web portal to all federal, state and local government web resources and services.